Oxford, NC

12:00 AM EDT on September 20, 2019 (GMT -0400)
Henderson-Oxford

Weather History for KHNZ - July, 2019

Change the Weather History Date:

Tuesday, July 16, 2019

  Actual Average (KTDF) Record (KTDF)
Temperature  
Mean Temperature 82 °F -  
Max Temperature 93 °F 88 °F 100 °F (2002)
Min Temperature 70 °F 65 °F 57 °F (1967)
Cooling Degree Days 16    
Growing Degree Days 32 (Base 50)    
Moisture  
Dew Point 68 °F    
Average Humidity 67    
Maximum Humidity 95    
Minimum Humidity 39    
Precipitation  
Precipitation 0.00 in - - ()
Sea Level Pressure  
Sea Level Pressure 30.09 in    
Wind  
Wind Speed 1 mph (SSW)    
Max Wind Speed 9 mph    
Max Gust Speed 16 mph    
Visibility 10 miles    
Events      
Averages and records for this station are not official NWS values.
T = Trace of Precipitation, MM = Missing Value Source: NWS Daily Summary

Daily Weather History Graph

Daily Weather History Graph

Search for Another Location

Airport or City:

Astronomy

Jul. 16, 2019 Rise Set
Actual Time 6:08 AM EDT 8:31 PM EDT
Civil Twilight 5:38 AM EDT 9:01 PM EDT
Nautical Twilight 5:02 AM EDT 9:37 PM EDT
Astronomical Twilight 4:22 AM EDT 10:17 PM EDT
Moon 8:35 PM EDT (7/16) 5:45 AM EDT (7/16)
Length of Visible Light 15h 22m
Length of Day
14h 23m
Full, 100% of the Moon is Illuminated
Jul 16
Full
Jul 16
Full
Jul 24
Last Quarter
Jul 31
New
Aug 7
First Quarter

Hourly Weather History & Observations

Time (EDT) Temp. Heat Index Dew Point Humidity Pressure Visibility Wind Dir Wind Speed Gust Speed Precip Events Conditions
12:15 AM 75.6 °F - 68.2 °F 78% 30.10 in 10.0 mi Calm Calm - N/A   Clear
12:35 AM 75.6 °F - 68.5 °F 79% 30.10 in 10.0 mi Calm Calm - N/A   Clear
12:55 AM 73.0 °F - 68.5 °F 86% 30.11 in 10.0 mi Calm Calm - N/A   Clear
1:15 AM 72.7 °F - 68.9 °F 88% 30.10 in 10.0 mi Calm Calm - N/A   Clear
1:35 AM 72.9 °F - 68.9 °F 87% 30.10 in 10.0 mi Calm Calm - N/A   Clear
2:15 AM 75.4 °F - 68.2 °F 78% 30.09 in 10.0 mi Calm Calm - N/A   Clear
2:35 AM 77.0 °F - 68.0 °F 74% 30.09 in 10.0 mi Calm Calm - N/A   Clear
2:55 AM 77.0 °F - 67.6 °F 73% 30.08 in 10.0 mi Calm Calm - N/A   Clear
3:15 AM 75.0 °F - 68.0 °F 79% 30.08 in 10.0 mi Calm Calm - N/A   Clear
3:35 AM 72.9 °F - 68.2 °F 85% 30.07 in 10.0 mi Calm Calm - N/A   Clear
3:55 AM 72.5 °F - 68.5 °F 87% 30.08 in 10.0 mi Calm Calm - N/A   Clear
4:35 AM 71.6 °F - 68.4 °F 89% 30.08 in 10.0 mi Calm Calm - N/A   Clear
4:55 AM 70.7 °F - 68.5 °F 93% 30.09 in 10.0 mi Calm Calm - N/A   Clear
5:15 AM 70.7 °F - 68.5 °F 93% 30.09 in 10.0 mi Calm Calm - N/A   Clear
5:35 AM 70.7 °F - 68.5 °F 93% 30.10 in 10.0 mi Calm Calm - N/A   Clear
5:55 AM 70.3 °F - 68.4 °F 93% 30.10 in 10.0 mi Calm Calm - N/A   Clear
6:15 AM 70.7 °F - 68.5 °F 93% 30.10 in 10.0 mi Calm Calm - N/A   Clear
6:35 AM 70.3 °F - 68.4 °F 93% 30.11 in 10.0 mi Calm Calm - N/A   Clear
6:55 AM 70.7 °F - 68.9 °F 94% 30.11 in 7.0 mi Calm Calm - N/A   Clear
7:15 AM 71.4 °F - 69.8 °F 95% 30.11 in 7.0 mi Calm Calm - N/A   Clear
7:35 AM 73.4 °F - 70.2 °F 90% 30.12 in 10.0 mi Calm Calm - N/A   Clear
7:55 AM 77.4 °F - 70.2 °F 78% 30.12 in 10.0 mi Calm Calm - N/A   Clear
8:15 AM 78.1 °F - 69.8 °F 76% 30.12 in 10.0 mi Calm Calm - N/A   Clear
8:35 AM 79.0 °F - 70.0 °F 74% 30.13 in 10.0 mi Calm Calm - N/A   Clear
8:55 AM 81.0 °F 84.2 °F 69.6 °F 68% 30.13 in 10.0 mi Calm Calm - N/A   Clear
9:15 AM 82.2 °F 86.0 °F 69.8 °F 66% 30.13 in 10.0 mi Calm Calm - N/A   Clear
9:35 AM 83.3 °F 87.6 °F 70.5 °F 65% 30.12 in 10.0 mi Calm Calm - N/A   Clear
9:55 AM 85.5 °F 89.8 °F 69.8 °F 59% 30.12 in 10.0 mi Calm Calm - N/A   Clear
10:15 AM 86.5 °F 90.3 °F 68.7 °F 55% 30.12 in 10.0 mi Calm Calm - N/A   Clear
10:35 AM 87.1 °F 90.6 °F 68.2 °F 53% 30.12 in 10.0 mi Calm Calm - N/A   Clear
10:55 AM 88.7 °F 92.6 °F 68.5 °F 51% 30.13 in 10.0 mi Calm Calm - N/A   Clear
11:15 AM 89.4 °F 93.1 °F 68.2 °F 49% 30.12 in 10.0 mi Calm Calm - N/A   Clear
11:35 AM 90.7 °F 95.4 °F 68.9 °F 49% 30.12 in 10.0 mi WSW 6.9 mph - N/A   Clear
12:15 PM 90.5 °F 93.8 °F 67.3 °F 46% 30.12 in 10.0 mi WSW 6.9 mph - N/A   Clear
12:35 PM 90.1 °F 93.1 °F 66.6 °F 46% 30.12 in 10.0 mi Calm Calm - N/A   Clear
12:55 PM 90.3 °F 93.4 °F 66.7 °F 46% 30.12 in 10.0 mi West 5.8 mph - N/A   Clear
1:15 PM 89.8 °F 92.9 °F 66.9 °F 47% 30.12 in 10.0 mi West 4.6 mph - N/A   Clear
1:35 PM 91.0 °F 94.7 °F 67.8 °F 46% 30.11 in 10.0 mi Calm Calm - N/A   Clear
1:55 PM 92.8 °F 96.6 °F 67.1 °F 43% 30.10 in 10.0 mi SSW 5.8 mph - N/A   Clear
2:15 PM 93.4 °F 97.6 °F 67.6 °F 43% 30.09 in 10.0 mi SW 5.8 mph - N/A   Clear
2:35 PM 92.3 °F 96.1 °F 67.6 °F 44% 30.09 in 10.0 mi WSW 5.8 mph - N/A   Clear
2:55 PM 92.8 °F 96.1 °F 66.9 °F 42% 30.08 in 10.0 mi West 3.5 mph - N/A   Clear
3:15 PM 93.4 °F 95.6 °F 65.1 °F 39% 30.07 in 10.0 mi West 8.1 mph - N/A   Clear
3:35 PM 91.9 °F 94.1 °F 65.3 °F 41% 30.07 in 10.0 mi Calm Calm - N/A   Clear
3:55 PM 92.7 °F 94.4 °F 64.6 °F 39% 30.07 in 10.0 mi WSW 8.1 mph - N/A   Clear
4:15 PM 92.1 °F 94.8 °F 65.7 °F 42% 30.07 in 10.0 mi WSW 5.8 mph - N/A   Clear
4:35 PM 91.4 °F 93.6 °F 65.1 °F 42% 30.07 in 10.0 mi SW 9.2 mph - N/A   Clear
4:55 PM 93.2 °F 96.7 °F 66.7 °F 42% 30.06 in 10.0 mi SW 8.1 mph 16.1 mph N/A   Scattered Clouds
5:15 PM 90.1 °F 93.1 °F 66.9 °F 46% 30.06 in 10.0 mi WSW 8.1 mph - N/A   Clear
5:35 PM 89.4 °F 91.9 °F 66.0 °F 46% 30.06 in 10.0 mi West 4.6 mph - N/A   Clear
5:55 PM 88.7 °F 92.2 °F 67.8 °F 50% 30.05 in 10.0 mi SW 4.6 mph - N/A   Clear
6:15 PM 87.8 °F 91.8 °F 68.7 °F 53% 30.05 in 10.0 mi South 4.6 mph - N/A   Clear
6:35 PM 86.2 °F 90.7 °F 70.0 °F 58% 30.05 in 10.0 mi South 6.9 mph - N/A   Clear
6:55 PM 84.9 °F 89.4 °F 70.0 °F 61% 30.05 in 10.0 mi South 4.6 mph - N/A   Clear
7:15 PM 84.4 °F 88.7 °F 70.0 °F 62% 30.07 in 10.0 mi South 3.5 mph - N/A   Clear
7:35 PM 83.8 °F 88.1 °F 69.8 °F 63% 30.07 in 10.0 mi Calm Calm - N/A   Clear
7:55 PM 83.3 °F 87.4 °F 69.8 °F 64% 30.07 in 10.0 mi SE 3.5 mph - N/A   Clear
8:15 PM 82.6 °F 86.4 °F 69.8 °F 65% 30.07 in 10.0 mi Calm Calm - N/A   Clear
8:35 PM 81.9 °F 85.6 °F 69.8 °F 67% 30.07 in 10.0 mi SSE 3.5 mph - N/A   Clear
8:55 PM 81.3 °F 84.8 °F 69.8 °F 68% 30.07 in 10.0 mi SE 4.6 mph - N/A   Clear
9:15 PM 80.6 °F 83.6 °F 69.1 °F 68% 30.07 in 10.0 mi SE 4.6 mph - N/A   Clear
9:35 PM 79.7 °F - 69.3 °F 70% 30.08 in 10.0 mi SE 5.8 mph - N/A   Scattered Clouds
9:55 PM 79.0 °F - 69.4 °F 72% 30.09 in 10.0 mi SE 5.8 mph - N/A   Scattered Clouds
10:15 PM 78.3 °F - 69.8 °F 75% 30.10 in 10.0 mi SSE 4.6 mph - N/A   Clear
10:35 PM 77.9 °F - 70.0 °F 76% 30.10 in 10.0 mi Calm Calm - N/A   Clear
10:55 PM 77.2 °F - 70.2 °F 79% 30.09 in 10.0 mi Calm Calm - N/A   Clear
11:15 PM 77.0 °F - 70.3 °F 80% 30.09 in 10.0 mi Calm Calm - N/A   Clear
11:35 PM 76.6 °F - 70.3 °F 81% 30.09 in 10.0 mi Calm Calm - N/A   Clear
11:55 PM 76.5 °F - 70.5 °F 82% 30.09 in 10.0 mi Calm Calm - N/A   Clear